Time,TemperatureF,DewpointF,PressureIn,WindDirection,WindDirectionDegrees,WindSpeedMPH,WindSpeedGustMPH,Humidity,HourlyPrecipIn,Conditions,Clouds,dailyrainin,SoftwareType,DateUTC
2013-02-25 00:01:00,35.0,29.0,30.25,East,82,9.0,13.0,77,0.00,,,0.00,,2013-02-25 00:01:00,
2013-02-25 00:11:00,35.0,29.0,30.25,East,82,9.0,13.0,77,0.00,,,0.00,,2013-02-25 00:11:00,
2013-02-25 00:21:00,35.0,29.0,30.25,East,82,3.0,13.0,77,0.00,,,0.00,,2013-02-25 00:21:00,
2013-02-25 00:31:00,35.0,29.0,30.25,ENE,67,5.0,16.0,78,0.00,,,0.00,,2013-02-25 00:31:00,
2013-02-25 00:41:00,35.0,29.0,30.25,ENE,67,5.0,16.0,78,0.00,,,0.00,,2013-02-25 00:41:00,
2013-02-25 00:52:00,35.0,29.0,30.25,NE,55,7.0,15.0,79,0.00,,,0.00,,2013-02-25 00:52:00,
2013-02-25 01:01:00,35.0,29.0,30.26,ESE,116,10.0,15.0,80,0.00,,,0.00,,2013-02-25 01:01:00,
2013-02-25 01:11:00,35.0,29.0,30.26,ESE,116,10.0,15.0,80,0.00,,,0.00,,2013-02-25 01:11:00,
2013-02-25 01:21:00,35.0,30.0,30.25,East,79,5.0,17.0,81,0.00,,,0.00,,2013-02-25 01:21:00,
2013-02-25 01:31:00,35.0,30.0,30.25,ENE,60,7.0,12.0,81,0.00,,,0.00,,2013-02-25 01:31:00,
2013-02-25 01:42:00,35.0,30.0,30.25,ENE,60,7.0,12.0,81,0.00,,,0.00,,2013-02-25 01:42:00,
2013-02-25 01:52:00,35.0,30.0,30.25,NNE,31,6.0,10.0,81,0.00,,,0.00,,2013-02-25 01:52:00,
2013-02-25 02:01:00,35.0,30.0,30.25,ENE,75,6.0,12.0,81,0.00,,,0.00,,2013-02-25 02:01:00,
2013-02-25 02:11:00,35.0,30.0,30.25,ENE,75,6.0,12.0,81,0.00,,,0.00,,2013-02-25 02:11:00,
2013-02-25 02:21:00,35.0,30.0,30.24,NNE,25,8.0,12.0,81,0.00,,,0.00,,2013-02-25 02:21:00,
2013-02-25 02:31:00,35.0,30.0,30.24,NE,46,5.0,12.0,81,0.00,,,0.00,,2013-02-25 02:31:00,
2013-02-25 02:41:00,35.0,30.0,30.24,NE,46,5.0,12.0,81,0.00,,,0.00,,2013-02-25 02:41:00,
2013-02-25 02:52:00,35.0,30.0,30.24,ENE,75,5.0,14.0,83,0.00,,,0.00,,2013-02-25 02:52:00,
2013-02-25 03:01:00,35.0,31.0,30.24,NE,40,5.0,12.0,85,0.00,,,0.00,,2013-02-25 03:01:00,
2013-02-25 03:11:00,35.0,31.0,30.24,NE,40,5.0,12.0,85,0.00,,,0.00,,2013-02-25 03:11:00,
2013-02-25 03:21:00,35.0,32.0,30.24,NNE,30,6.0,14.0,87,0.00,,,0.00,,2013-02-25 03:21:00,
2013-02-25 03:31:00,35.0,32.0,30.24,East,87,6.0,13.0,87,0.00,,,0.00,,2013-02-25 03:31:00,
2013-02-25 03:41:00,35.0,32.0,30.24,East,87,6.0,13.0,87,0.00,,,0.00,,2013-02-25 03:41:00,
2013-02-25 03:52:00,35.0,31.0,30.24,NE,48,7.0,18.0,86,0.00,,,0.00,,2013-02-25 03:52:00,
2013-02-25 04:01:00,35.0,31.0,30.24,East,83,5.0,13.0,86,0.00,,,0.00,,2013-02-25 04:01:00,
2013-02-25 04:11:00,35.0,31.0,30.24,East,83,5.0,13.0,86,0.00,,,0.00,,2013-02-25 04:11:00,
2013-02-25 04:21:00,35.0,32.0,30.24,East,85,6.0,12.0,87,0.00,,,0.00,,2013-02-25 04:21:00,
2013-02-25 04:31:00,35.0,32.0,30.24,East,85,7.0,13.0,87,0.00,,,0.00,,2013-02-25 04:31:00,
2013-02-25 04:41:00,35.0,32.0,30.24,East,85,7.0,13.0,87,0.00,,,0.00,,2013-02-25 04:41:00,
2013-02-25 04:52:00,35.0,32.0,30.25,ESE,104,5.0,12.0,88,0.00,,,0.00,,2013-02-25 04:52:00,
2013-02-25 05:01:00,35.0,32.0,30.25,NE,55,7.0,13.0,88,0.00,,,0.00,,2013-02-25 05:01:00,
2013-02-25 05:11:00,35.0,32.0,30.25,NE,55,7.0,13.0,88,0.00,,,0.00,,2013-02-25 05:11:00,
2013-02-25 05:22:00,35.0,32.0,30.25,NE,55,4.0,12.0,88,0.00,,,0.00,,2013-02-25 05:22:00,
2013-02-25 05:31:00,35.0,32.0,30.25,NE,41,8.0,13.0,88,0.00,,,0.00,,2013-02-25 05:31:00,
2013-02-25 05:41:00,35.0,32.0,30.25,NE,41,8.0,13.0,88,0.00,,,0.00,,2013-02-25 05:41:00,
2013-02-25 05:52:00,36.0,33.0,30.26,NE,34,3.0,12.0,88,0.00,,,0.00,,2013-02-25 05:52:00,
2013-02-25 06:02:00,36.0,33.0,30.26,ENE,65,2.0,9.0,88,0.00,,,0.00,,2013-02-25 06:02:00,
2013-02-25 06:11:00,36.0,33.0,30.26,ENE,65,2.0,9.0,88,0.00,,,0.00,,2013-02-25 06:11:00,
2013-02-25 06:21:00,36.0,33.0,30.27,ESE,110,5.0,12.0,88,0.00,,,0.00,,2013-02-25 06:21:00,
2013-02-25 06:31:00,36.0,33.0,30.27,ENE,65,6.0,10.0,88,0.00,,,0.00,,2013-02-25 06:31:00,
2013-02-25 06:41:00,36.0,33.0,30.27,ENE,65,6.0,10.0,88,0.00,,,0.00,,2013-02-25 06:41:00,
2013-02-25 06:52:00,36.0,33.0,30.28,NE,48,4.0,12.0,88,0.00,,,0.00,,2013-02-25 06:52:00,
2013-02-25 07:01:00,36.0,33.0,30.28,SE,129,4.0,10.0,87,0.00,,,0.00,,2013-02-25 07:01:00,
2013-02-25 07:11:00,36.0,33.0,30.29,SE,132,2.0,10.0,87,0.00,,,0.00,,2013-02-25 07:11:00,
2013-02-25 07:21:00,36.0,33.0,30.29,SE,132,2.0,10.0,87,0.00,,,0.00,,2013-02-25 07:21:00,
2013-02-25 07:31:00,36.0,32.0,30.29,East,88,5.0,10.0,86,0.00,,,0.00,,2013-02-25 07:31:00,
2013-02-25 07:41:00,36.0,32.0,30.29,East,88,5.0,10.0,86,0.00,,,0.00,,2013-02-25 07:41:00,
2013-02-25 07:52:00,37.0,34.0,30.30,NE,38,5.0,12.0,87,0.00,,,0.00,,2013-02-25 07:52:00,
2013-02-25 08:01:00,37.0,34.0,30.30,East,94,5.0,12.0,87,0.00,,,0.00,,2013-02-25 08:01:00,
2013-02-25 08:11:00,37.0,34.0,30.30,East,94,5.0,12.0,87,0.00,,,0.00,,2013-02-25 08:11:00,
2013-02-25 08:21:00,37.0,34.0,30.30,East,79,6.0,12.0,87,0.00,,,0.00,,2013-02-25 08:21:00,
2013-02-25 08:31:00,37.0,33.0,30.30,ENE,76,5.0,14.0,86,0.00,,,0.00,,2013-02-25 08:31:00,
2013-02-25 08:41:00,37.0,33.0,30.30,ENE,76,5.0,14.0,86,0.00,,,0.00,,2013-02-25 08:41:00,
2013-02-25 08:52:00,37.0,33.0,30.31,NE,55,6.0,14.0,86,0.00,,,0.00,,2013-02-25 08:52:00,
2013-02-25 09:01:00,37.0,33.0,30.31,NNE,27,7.0,14.0,86,0.00,,,0.00,,2013-02-25 09:01:00,
2013-02-25 09:12:00,37.0,33.0,30.31,NNE,27,7.0,14.0,86,0.00,,,0.00,,2013-02-25 09:12:00,
2013-02-25 09:21:00,37.0,33.0,30.32,East,88,6.0,14.0,86,0.00,,,0.00,,2013-02-25 09:21:00,
2013-02-25 09:31:00,38.0,34.0,30.32,ENE,73,7.0,13.0,86,0.00,,,0.00,,2013-02-25 09:31:00,
2013-02-25 09:41:00,38.0,34.0,30.32,ENE,73,7.0,13.0,86,0.00,,,0.00,,2013-02-25 09:41:00,
2013-02-25 09:52:00,38.0,34.0,30.32,East,79,7.0,16.0,86,0.00,,,0.00,,2013-02-25 09:52:00,
2013-02-25 10:01:00,38.0,34.0,30.32,East,87,6.0,15.0,86,0.00,,,0.00,,2013-02-25 10:01:00,
2013-02-25 10:11:00,39.0,34.0,30.32,East,89,7.0,13.0,83,0.00,,,0.00,,2013-02-25 10:11:00,
2013-02-25 10:21:00,39.0,34.0,30.32,East,89,7.0,13.0,83,0.00,,,0.00,,2013-02-25 10:21:00,
2013-02-25 10:31:00,39.0,34.0,30.32,East,94,7.0,16.0,83,0.00,,,0.00,,2013-02-25 10:31:00,
2013-02-25 10:41:00,39.0,34.0,30.32,East,94,7.0,16.0,83,0.00,,,0.00,,2013-02-25 10:41:00,
2013-02-25 10:52:00,39.0,35.0,30.33,ENE,65,5.0,12.0,84,0.00,,,0.00,,2013-02-25 10:52:00,
2013-02-25 11:01:00,39.0,35.0,30.33,NE,55,6.0,18.0,84,0.00,,,0.00,,2013-02-25 11:01:00,
2013-02-25 11:11:00,39.0,35.0,30.33,NE,55,6.0,18.0,84,0.00,,,0.00,,2013-02-25 11:11:00,
2013-02-25 11:21:00,39.0,35.0,30.33,East,89,5.0,14.0,84,0.00,,,0.00,,2013-02-25 11:21:00,
2013-02-25 11:31:00,39.0,34.0,30.33,East,90,8.0,14.0,83,0.00,,,0.00,,2013-02-25 11:31:00,
2013-02-25 11:42:00,39.0,34.0,30.33,East,90,8.0,14.0,83,0.00,,,0.00,,2013-02-25 11:42:00,
2013-02-25 11:52:00,39.0,34.0,30.34,ESE,104,6.0,12.0,83,0.00,,,0.00,,2013-02-25 11:52:00,
2013-02-25 12:01:00,39.0,34.0,30.34,ESE,117,7.0,13.0,82,0.00,,,0.00,,2013-02-25 12:01:00,
2013-02-25 12:11:00,39.0,34.0,30.34,ESE,117,7.0,13.0,82,0.00,,,0.00,,2013-02-25 12:11:00,
2013-02-25 12:21:00,39.0,33.0,30.34,East,90,9.0,12.0,80,0.00,,,0.00,,2013-02-25 12:21:00,
2013-02-25 12:31:00,39.0,33.0,30.33,East,100,6.0,12.0,80,0.00,,,0.00,,2013-02-25 12:31:00,
2013-02-25 12:41:00,39.0,33.0,30.33,East,100,6.0,12.0,80,0.00,,,0.00,,2013-02-25 12:41:00,
2013-02-25 12:54:00,39.0,33.0,30.33,East,101,7.0,17.0,80,0.00,,,0.00,,2013-02-25 12:54:00,
2013-02-25 13:01:00,39.0,34.0,30.32,SE,136,5.0,12.0,81,0.00,,,0.00,,2013-02-25 13:01:00,
2013-02-25 13:11:00,39.0,34.0,30.32,SE,136,5.0,12.0,81,0.00,,,0.00,,2013-02-25 13:11:00,
2013-02-25 13:21:00,39.0,34.0,30.32,East,85,8.0,17.0,82,0.00,,,0.00,,2013-02-25 13:21:00,
2013-02-25 13:31:00,39.0,34.0,30.32,NE,55,6.0,15.0,83,0.00,,,0.00,,2013-02-25 13:31:00,
2013-02-25 13:41:00,39.0,34.0,30.32,NE,55,6.0,15.0,83,0.00,,,0.00,,2013-02-25 13:41:00,
2013-02-25 13:52:00,39.0,34.0,30.32,ENE,65,9.0,14.0,83,0.00,,,0.00,,2013-02-25 13:52:00,
2013-02-25 14:02:00,39.0,34.0,30.32,ESE,117,5.0,14.0,83,0.00,,,0.00,,2013-02-25 14:02:00,
2013-02-25 14:13:00,39.0,34.0,30.32,ESE,117,5.0,14.0,83,0.00,,,0.00,,2013-02-25 14:13:00,
2013-02-25 14:21:00,40.0,35.0,30.31,East,95,3.0,12.0,81,0.00,,,0.00,,2013-02-25 14:21:00,
2013-02-25 14:31:00,40.0,35.0,30.31,East,84,3.0,10.0,82,0.00,,,0.00,,2013-02-25 14:31:00,
2013-02-25 14:41:00,40.0,35.0,30.31,East,84,3.0,10.0,82,0.00,,,0.00,,2013-02-25 14:41:00,
2013-02-25 14:52:00,40.0,35.0,30.31,East,101,7.0,20.0,82,0.00,,,0.00,,2013-02-25 14:52:00,
2013-02-25 15:02:00,40.0,35.0,30.32,ESE,106,7.0,16.0,82,0.00,,,0.00,,2013-02-25 15:02:00,
2013-02-25 15:11:00,40.0,35.0,30.32,ESE,106,7.0,16.0,82,0.00,,,0.00,,2013-02-25 15:11:00,
2013-02-25 15:21:00,40.0,35.0,30.32,SE,134,7.0,15.0,82,0.00,,,0.00,,2013-02-25 15:21:00,
2013-02-25 15:32:00,40.0,35.0,30.32,ENE,69,7.0,14.0,82,0.00,,,0.00,,2013-02-25 15:32:00,
2013-02-25 15:41:00,40.0,35.0,30.32,ENE,69,7.0,14.0,82,0.00,,,0.00,,2013-02-25 15:41:00,
2013-02-25 15:52:00,40.0,35.0,30.32,East,87,7.0,14.0,81,0.00,,,0.00,,2013-02-25 15:52:00,
2013-02-25 16:01:00,40.0,35.0,30.32,East,82,7.0,14.0,82,0.00,,,0.00,,2013-02-25 16:01:00,
2013-02-25 16:11:00,40.0,35.0,30.32,East,82,7.0,14.0,82,0.00,,,0.00,,2013-02-25 16:11:00,
2013-02-25 16:21:00,40.0,35.0,30.32,NE,55,5.0,13.0,82,0.00,,,0.00,,2013-02-25 16:21:00,
2013-02-25 16:31:00,40.0,35.0,30.32,ENE,65,7.0,14.0,82,0.00,,,0.00,,2013-02-25 16:31:00,
2013-02-25 16:41:00,40.0,35.0,30.32,ENE,65,7.0,14.0,82,0.00,,,0.00,,2013-02-25 16:41:00,
2013-02-25 16:52:00,40.0,35.0,30.32,East,98,6.0,20.0,82,0.00,,,0.00,,2013-02-25 16:52:00,
2013-02-25 17:01:00,40.0,35.0,30.32,East,92,9.0,14.0,82,0.00,,,0.00,,2013-02-25 17:01:00,
2013-02-25 17:11:00,40.0,35.0,30.32,East,92,9.0,14.0,82,0.00,,,0.00,,2013-02-25 17:11:00,
2013-02-25 17:21:00,40.0,35.0,30.33,East,86,5.0,17.0,83,0.00,,,0.00,,2013-02-25 17:21:00,
2013-02-25 17:31:00,40.0,35.0,30.32,ESE,120,7.0,20.0,83,0.00,,,0.00,,2013-02-25 17:31:00,
2013-02-25 17:41:00,40.0,35.0,30.32,ESE,120,7.0,20.0,83,0.00,,,0.00,,2013-02-25 17:41:00,
2013-02-25 17:52:00,39.0,35.0,30.33,ESE,113,11.0,20.0,84,0.00,,,0.00,,2013-02-25 17:52:00,
2013-02-25 18:01:00,39.0,35.0,30.33,East,90,5.0,12.0,84,0.00,,,0.00,,2013-02-25 18:01:00,
2013-02-25 18:11:00,39.0,35.0,30.33,East,90,5.0,12.0,84,0.00,,,0.00,,2013-02-25 18:11:00,
2013-02-25 18:21:00,39.0,35.0,30.33,East,88,8.0,16.0,84,0.00,,,0.00,,2013-02-25 18:21:00,
2013-02-25 18:32:00,39.0,35.0,30.34,ESE,120,6.0,16.0,84,0.00,,,0.00,,2013-02-25 18:32:00,
2013-02-25 18:41:00,39.0,35.0,30.34,ESE,120,6.0,16.0,84,0.00,,,0.00,,2013-02-25 18:41:00,
2013-02-25 18:52:00,40.0,36.0,30.34,East,92,7.0,16.0,84,0.00,,,0.00,,2013-02-25 18:52:00,
2013-02-25 19:01:00,40.0,36.0,30.34,ESE,114,9.0,15.0,84,0.00,,,0.00,,2013-02-25 19:01:00,
2013-02-25 19:11:00,40.0,36.0,30.34,ESE,114,9.0,15.0,84,0.00,,,0.00,,2013-02-25 19:11:00,
2013-02-25 19:21:00,39.0,35.0,30.34,East,97,5.0,18.0,85,0.00,,,0.00,,2013-02-25 19:21:00,
2013-02-25 19:31:00,39.0,35.0,30.34,ENE,72,8.0,20.0,85,0.00,,,0.00,,2013-02-25 19:31:00,
2013-02-25 19:41:00,39.0,35.0,30.34,ENE,72,8.0,20.0,85,0.00,,,0.00,,2013-02-25 19:41:00,
2013-02-25 19:52:00,39.0,35.0,30.34,East,86,8.0,13.0,86,0.00,,,0.00,,2013-02-25 19:52:00,
2013-02-25 20:01:00,39.0,35.0,30.35,East,79,9.0,15.0,86,0.00,,,0.00,,2013-02-25 20:01:00,
2013-02-25 20:11:00,39.0,35.0,30.35,East,79,9.0,15.0,86,0.00,,,0.00,,2013-02-25 20:11:00,
2013-02-25 20:21:00,39.0,35.0,30.35,East,99,12.0,18.0,87,0.00,,,0.00,,2013-02-25 20:21:00,
2013-02-25 20:31:00,39.0,35.0,30.35,East,94,12.0,18.0,87,0.00,,,0.00,,2013-02-25 20:31:00,
2013-02-25 20:41:00,39.0,35.0,30.35,East,94,12.0,18.0,87,0.00,,,0.00,,2013-02-25 20:41:00,
2013-02-25 20:52:00,39.0,35.0,30.35,East,84,10.0,17.0,87,0.00,,,0.00,,2013-02-25 20:52:00,
2013-02-25 21:01:00,39.0,35.0,30.35,East,88,8.0,15.0,87,0.00,,,0.00,,2013-02-25 21:01:00,
2013-02-25 21:11:00,39.0,35.0,30.35,East,88,8.0,15.0,87,0.00,,,0.00,,2013-02-25 21:11:00,
2013-02-25 21:21:00,39.0,35.0,30.35,East,85,11.0,18.0,87,0.00,,,0.00,,2013-02-25 21:21:00,
2013-02-25 21:31:00,39.0,35.0,30.35,ESE,111,8.0,15.0,87,0.00,,,0.00,,2013-02-25 21:31:00,
2013-02-25 21:41:00,39.0,35.0,30.35,ESE,111,8.0,15.0,87,0.00,,,0.00,,2013-02-25 21:41:00,
2013-02-25 21:52:00,39.0,35.0,30.35,ESE,102,6.0,15.0,87,0.00,,,0.00,,2013-02-25 21:52:00,
2013-02-25 22:01:00,39.0,35.0,30.35,SE,124,9.0,17.0,86,0.00,,,0.00,,2013-02-25 22:01:00,
2013-02-25 22:11:00,39.0,35.0,30.35,SE,124,9.0,17.0,86,0.00,,,0.00,,2013-02-25 22:11:00,
2013-02-25 22:21:00,39.0,35.0,30.35,East,84,9.0,22.0,87,0.00,,,0.00,,2013-02-25 22:21:00,
2013-02-25 22:31:00,39.0,35.0,30.35,East,85,7.0,16.0,87,0.00,,,0.00,,2013-02-25 22:31:00,
2013-02-25 22:41:00,39.0,35.0,30.35,East,85,7.0,16.0,87,0.00,,,0.00,,2013-02-25 22:41:00,
2013-02-25 22:52:00,39.0,36.0,30.35,East,99,9.0,18.0,88,0.00,,,0.00,,2013-02-25 22:52:00,
2013-02-25 23:01:00,38.0,35.0,30.35,SE,136,11.0,21.0,88,0.00,,,0.00,,2013-02-25 23:01:00,
2013-02-25 23:11:00,38.0,35.0,30.35,SE,136,11.0,21.0,88,0.00,,,0.00,,2013-02-25 23:11:00,
2013-02-25 23:22:00,38.0,34.0,30.35,ESE,119,7.0,22.0,87,0.00,,,0.00,,2013-02-25 23:22:00,
2013-02-25 23:31:00,38.0,34.0,30.36,ENE,77,6.0,14.0,87,0.00,,,0.00,,2013-02-25 23:31:00,
2013-02-25 23:41:00,38.0,34.0,30.36,ENE,77,6.0,14.0,87,0.00,,,0.00,,2013-02-25 23:41:00,
2013-02-25 23:52:00,38.0,35.0,30.36,SE,144,7.0,16.0,88,0.00,,,0.00,,2013-02-25 23:52:00,